Location: Unspecified
(0.0000°N, 0.0000°E)
Time: 05:42:07
(UTC+01:00)

GPS 2-12 Rocket1 - Visible Passes

Search period start: 03 March 2015 00:00
Search period end: 13 March 2015 00:00
Orbit: 590 x 657 km, 20.0° (Epoch: 01 March)

Date Brightness Start Highest point End Pass type
(mag) Time Alt. Az. Time Alt. Az. Time Alt. Az.
05 Mar 5.5 20:35:22 10° S 20:36:24 11° SSE 20:36:58 11° SSE visible
06 Mar 5.2 20:51:14 10° SSW 20:53:15 15° S 20:53:15 15° S visible
07 Mar 5.2 21:07:49 10° SW 21:09:34 19° SSW 21:09:34 19° SSW visible
08 Mar 5.1 19:42:45 10° SSW 19:45:14 15° SSE 19:47:50 10° SE visible
08 Mar 5.5 21:24:44 10° SW 21:25:55 17° SW 21:25:55 17° SW visible
09 Mar 4.6 19:59:14 10° SSW 20:02:48 23° SSE 20:05:13 15° ESE visible
09 Mar 6.0 21:41:54 10° WSW 21:42:19 12° WSW 21:42:19 12° WSW visible
10 Mar 5.6 06:25:48 10° N 06:27:43 12° NNE 06:29:43 10° NE visible
10 Mar 3.8 20:16:05 10° SW 20:20:16 38° SSE 20:21:39 30° ESE visible
11 Mar 5.3 06:42:02 10° NNW 06:45:20 18° NNE 06:48:41 10° ENE visible
11 Mar 2.9 20:33:12 10° WSW 20:37:40 69° SSE 20:38:06 64° ESE visible
12 Mar 5.6 05:18:36 12° N 05:18:47 12° NNE 05:20:30 10° NE visible
12 Mar 3.4 20:50:36 10° WSW 20:54:35 60° WNW 20:54:35 60° WNW visible
